weather.gov     
National Weather Service

Regional Weather Roundup
NWS Homepage
This page is being discontinued on March 12, 2014.
The same data is available at this site. Please update your bookmarks.
Thank you, and we apologize for the inconvenience.
Please send an email to SR-SRH.Webmaster@noaa.gov with any concerns.


Current Version
Previous Version:    01  02  03  04  05  06  07  08  09  10  11  12  13  14  15  16  17  18  19  20  21  22  23  24  25  26  27  28  29  30  
   31  32  33  34  35  36  37  38  39  40  41  42  43  44  45  46  47  48  49  50  51  52  53  
[Printable]
838
ASUS45 KTFX 290819
RWRMT
MONTANA HOURLY WEATHER ROUNDUP
NATIONAL WEATHER SERVICE GREAT FALLS MT
219 AM MDT TUE JUL 29 2014

NOTE: "FAIR" INDICATES FEW OR NO CLOUDS BELOW 12000 FEET WITH NO
SIGNIFICANT WEATHER AND/OR OBSTRUCTIONS TO VISIBILITY.

* THESE STATIONS ARE NOT UNDER NWS QUALITY CONTROL. THEY DO NOT
   REPORT WEATHER SUCH AS PRECIPITATION OR FOG.

MTZ001>007-043-290900-
WEST OF THE DIVIDE
CITY           SKY/WX    TMP DP  RH WIND       PRES   REMARKS
KALISPELL      CLEAR     54  50  86 W6        30.12F
MISSOULA       PTCLDY    66  41  40 NE5       30.15S
BUTTE          CLEAR     55  39  55 CALM      30.29F
MULLAN PASS    CLEAR     70  37  30 SE6       30.33S
* LINCOLN      N/A       54  46  74 E1         N/A
* LOOKOUT PASS N/A       64  44  48 N/A        N/A
* POLSON       N/A       67  41  39 N/A        N/A
* RONAN APT    PTCLDY    55  48  77 N/A        N/A
* SEELEY LAKE  N/A       54  45  72 NE1        N/A
* THOMP F APT  CLEAR     65  42  43 N8         N/A
* YAAK HILL    N/A       64  46  52 N/A        N/A
$$

MTZ008-052>055-290900-
SOUTHWEST MONTANA
CITY           SKY/WX    TMP DP  RH WIND       PRES   REMARKS
BOZEMAN        CLEAR     64  45  50 S9        30.22S
DILLON         PTCLDY    57  43  60 S8        30.27F
W YELLOWSTONE  CLOUDY    55  52  90 NW3       30.40F
* THREE FORKS  CLEAR     66  54  65 N/A        N/A
* MONIDA PASS  N/A       56  46  69 NE6        N/A
* RAYNOLDS PAS N/A       60  35  39 SE2        N/A
* WHITEHALL    N/A       70  43  38 W7         N/A
* WISE RIVER   N/A       56  41  57 S3         N/A
$$

MTZ009>010-012-014-046-048-049-054-290900-
EAST SLOPES AND CENTRAL MONTANA
CITY           SKY/WX    TMP DP  RH WIND       PRES   REMARKS
CUT BANK       PTCLDY    63  46  54 CALM      30.23S
GREAT FALLS    MOCLDY    72  48  43 SE9       30.16F
HELENA         CLEAR     73  39  29 SW9       30.18S
MALMSTROM AFB  MOCLDY    72  48  43 E13G24    30.18S
* CONRAD       PTCLDY    63  54  73 N/A        N/A
* DEARBORN     N/A       64  46  52 SW1        N/A
* EAST GLACIER N/A       56  48  75 NW4        N/A
* ROGERS PASS  N/A       63  39  41 NW2        N/A
* SAINT MARY   N/A       50  47  89 S3         N/A
* SWEET GRASS  N/A       67  43  42 S12        N/A
* WHITE SULPH  N/A       66  42  42 NE8G14     N/A
$$

MTZ011-013-016-021-035-040-045-047-050-051-290900-
NORTH CENTRAL MONTANA
CITY           SKY/WX    TMP DP  RH WIND       PRES   REMARKS
HAVRE          PTCLDY    72  46  40 NE6       30.15R
LEWISTOWN      CLOUDY    73  43  34 N13G24    30.28R
* FORT BENTON  PTCLDY    75  45  34 E15G21    30.16S
* CHESTER      N/A       69  49  49 E2G7       N/A
* DENTON       N/A       65  51  61 S8         N/A
* GEYSER       N/A       63  55  75 SE24       N/A
* JUDITH GAP   N/A       70  42  36 SE17       N/A
* LOMA         N/A       74  45  36 E14G19     N/A
$$

MTZ017>020-022>027-061-062-290900-
NORTHEAST MONTANA
CITY           SKY/WX    TMP DP  RH WIND       PRES   REMARKS
GLASGOW        PTCLDY    61  46  58 E10       30.19F
GLENDIVE       CLEAR     63  52  68 S8        30.24S
JORDAN         PTCLDY    66  46  49 E9        30.19F
SIDNEY         CLEAR     57  50  78 CALM      30.22F
WOLF POINT     CLEAR     57  45  64 CALM      30.21S
* BEAVER HILL  N/A       61  52  72 SE14       N/A
* CIRCLE       N/A       61  48  62 N/A        N/A
* LINDSAY DVD  N/A       59  49  70 N/A        N/A
$$

MTZ028>042-056>058-290900-
SOUTHCENTRAL AND SOUTHEAST MONTANA
CITY           SKY/WX    TMP DP  RH WIND       PRES   REMARKS
BAKER          MOCLDY    61  52  72 S9        30.25F
BILLINGS       MOCLDY    72  45  38 NE5       30.19F
LIVINGSTON     PTCLDY    64  43  47 S5        30.24R
MILES CITY     PTCLDY    66  52  61 S7        30.21S
* LAUREL APT   CLOUDY    72  43  35 N5         N/A
* ROUNDUP APT  PTCLDY    72  39  30 N/A        N/A
* ALZADA       N/A       63  51  65 E10        N/A
* HYSHAM       N/A       72  45  38 E6         N/A
* LAME DEER    N/A       66  51  59 SE9        N/A
* REED POINT   N/A       70  46  42 N/A        N/A
* ROSCOE HILL  N/A       70  43  38 SW2G11     N/A
$$

REGIONAL REPORTS...DAKOTAS
CITY           SKY/WX    TMP DP  RH WIND       PRES   REMARKS
WILLISTON      CLEAR     57  54  90 N3        30.22S
DICKINSON      CLEAR     55  50  83 S9        30.23F
CROSBY         N/A       57  57 100 SW8       30.22F
TIOGA          FOG       52  52 100 E3        30.26F
WATFORD CITY   CLEAR     52  50  93 CALM      30.21S
BISMARCK       CLEAR     54  52  93 NE3       30.24S
GRAND FORKS    CLEAR     54  52  93 W5        30.17F
FARGO          CLEAR     55  52  90 CALM      30.18F
BUFFALO SD     MOCLDY    61  52  72 SE7       30.20F
RAPID CITY     CLEAR     54  48  80 CALM      30.28S
$$

REGIONAL REPORTS...WYOMING/IDAHO/WASHINGTON
CITY           SKY/WX    TMP DP  RH WIND       PRES   REMARKS
GILLETTE       CLOUDY    70  52  53 S9        30.25F
SHERIDAN       CLOUDY    70  50  49 SW5       30.22F
YELLOWSTONE LA CLOUDY    54  48  80 CALM      30.51S
SALMON         PTCLDY    59  46  62 CALM      30.20S
MULLAN PASS    CLEAR     70  37  30 SE6       30.33S
SAND POINT     CLEAR     55  50  83 CALM      30.08S
SPOKANE        CLEAR     75  43  32 CALM      30.06S
$$

REGIONAL REPORTS...ALBERTA
CITY           SKY/WX    TMP DP  RH WIND       PRES   REMARKS
CALGARY        N/A       63  55  75 SW6       30.18F
LETHBRIDGE     CLEAR     55  52  90 SW7       30.17F
MEDICINE HAT   CLEAR     64  50  61 N7        30.14F
EDMONTON       FAIR      59  57  93 SE7       30.14S
WATERTON GATE  N/A       52  48  86 SW5        N/A
CARDSTON       N/A       55  50  83 S5         N/A
MILK RIVER     N/A       66  45  47 SW9        N/A
$$

REGIONAL REPORTS...SASKATCHEWAN
CITY           SKY/WX    TMP DP  RH WIND       PRES   REMARKS
SWIFT CURRENT  CLEAR     54  50  86 SE9       30.23S
REGINA         N/A       61  59  93 S2        30.22S
VAL MARIE      N/A       57  52  83 NE5        N/A
ASSINIBOIA     N/A       55  52  90 SE2        N/A
CORONACH       N/A       48  46  93 W3         N/A

$$





U.S. Dept. of Commerce
NOAA National Weather Service
1325 East West Highway
Silver Spring, MD 20910
E-mail: w-nws.webmaster@noaa.gov
Page last modified: May 16, 2007
NATIONAL WEATHER SERVICE: for Safety, for Work, for Fun - FOR LIFE